VLK340 UHWW-UUWW

Flight info

Callsign VLK340
Flight time 8h 40m
Altitude 35000
Route DOLMA2F DOLMA B356 TD B355 HAB/K0857F340 L168 KEGES/K0850F360 L168 LEBNA T541 OKONI/K0843F380 T541 ARLIP/K0856F400 T541 KEDOR N174 MIGRI N155 GOBOM T187 ROMTA
Aircraft T204/M-SDE2E3FGHIJ3J4J7RWXY/LB1

Departure

Time 2026-03-27 23:17
Airport Vladivostok International Airport (UHWW)

Arrival

Time 2026-03-28 07:57
Airport Vnukovo International Airport (UUWW)
Time Latitude Longitude Altitude Speed Heading
2026-03-27 22:57 43.39849 132.16347 53 ft 0 kts 151°
2026-03-27 23:12 43.39848 132.16348 52 ft 2 kts 150°
2026-03-27 23:12 43.39810 132.16389 52 ft 11 kts 114°
2026-03-27 23:13 43.39841 132.16510 52 ft 17 kts 62°
2026-03-27 23:13 43.39909 132.16678 53 ft 21 kts 61°
2026-03-27 23:13 43.39984 132.16864 52 ft 22 kts 61°
2026-03-27 23:13 43.40048 132.17021 53 ft 11 kts 62°
2026-03-27 23:14 43.40090 132.17090 52 ft 8 kts 19°
2026-03-27 23:14 43.40137 132.17076 52 ft 6 kts 332°
2026-03-27 23:14 43.40191 132.17035 52 ft 11 kts 329°
2026-03-27 23:14 43.40264 132.16978 52 ft 12 kts 332°
2026-03-27 23:15 43.40324 132.16933 52 ft 6 kts 330°
2026-03-27 23:15 43.40332 132.16927 52 ft 0 kts 331°
2026-03-27 23:16 43.40352 132.16911 52 ft 6 kts 332°
2026-03-27 23:16 43.40416 132.16861 52 ft 12 kts 317°
2026-03-27 23:16 43.40410 132.16736 52 ft 20 kts 243°
2026-03-27 23:17 43.40237 132.16307 53 ft 82 kts 241°
2026-03-27 23:17 43.39864 132.15375 53 ft 140 kts 241°
2026-03-27 23:17 43.39353 132.14084 464 ft 157 kts 242°
2026-03-27 23:17 43.38842 132.12762 1073 ft 160 kts 243°
2026-03-27 23:18 43.38314 132.11398 1680 ft 164 kts 242°
2026-03-27 23:18 43.37789 132.10011 2277 ft 166 kts 253°
2026-03-27 23:18 43.37897 132.08522 2811 ft 166 kts 300°
2026-03-27 23:18 43.38795 132.07516 3231 ft 177 kts 344°
2026-03-27 23:19 43.41214 132.08725 4260 ft 212 kts 34°
2026-03-27 23:19 43.42416 132.09953 4868 ft 228 kts 35°
2026-03-27 23:19 43.43740 132.11342 5577 ft 250 kts 35°
2026-03-27 23:20 43.45152 132.12831 6374 ft 269 kts 35°
2026-03-27 23:20 43.46672 132.14436 7165 ft 288 kts 35°
2026-03-27 23:20 43.48307 132.16164 7955 ft 308 kts 35°
2026-03-27 23:20 43.50063 132.18021 8745 ft 329 kts 35°
2026-03-27 23:21 43.51921 132.19986 9626 ft 345 kts 34°
2026-03-27 23:21 43.53831 132.22011 10515 ft 360 kts 34°
2026-03-27 23:21 43.55856 132.24158 11414 ft 375 kts 34°
2026-03-27 23:21 43.57932 132.26363 12301 ft 388 kts 34°
2026-03-27 23:22 43.60085 132.28653 13191 ft 401 kts 34°
2026-03-27 23:22 43.62360 132.31074 14103 ft 412 kts 34°
2026-03-27 23:22 43.64647 132.33513 15150 ft 419 kts 34°
2026-03-27 23:22 43.66960 132.35982 16139 ft 426 kts 33°
2026-03-27 23:23 43.69327 132.38510 17093 ft 433 kts 33°
2026-03-27 23:23 43.71706 132.41055 18001 ft 440 kts 33°
2026-03-27 23:23 43.74150 132.43672 18895 ft 446 kts 33°
2026-03-27 23:23 43.76606 132.46304 19776 ft 452 kts 33°
2026-03-27 23:24 43.79110 132.48991 20663 ft 457 kts 33°
2026-03-27 23:24 43.81640 132.51709 21517 ft 463 kts 33°
2026-03-27 23:24 43.84184 132.54443 22103 ft 474 kts 32°
2026-03-27 23:24 43.86823 132.57281 22898 ft 479 kts 32°
2026-03-27 23:25 43.89493 132.60159 23515 ft 484 kts 32°
2026-03-27 23:25 43.92162 132.63042 24031 ft 484 kts 32°
2026-03-27 23:25 43.94778 132.65871 24523 ft 484 kts 33°
2026-03-27 23:25 43.97458 132.68770 25017 ft 484 kts 33°
2026-03-27 23:26 44.00081 132.71611 25502 ft 484 kts 33°
2026-03-27 23:26 44.02759 132.74515 25996 ft 485 kts 33°
2026-03-27 23:26 44.05386 132.77367 26482 ft 484 kts 32°
2026-03-27 23:26 44.08038 132.80249 26973 ft 484 kts 32°
2026-03-27 23:27 44.10670 132.83113 27461 ft 484 kts 32°
2026-03-27 23:27 44.13347 132.86028 27961 ft 484 kts 32°
2026-03-27 23:27 44.16005 132.88927 28457 ft 485 kts 32°
2026-03-27 23:27 44.18643 132.91808 28950 ft 485 kts 32°
2026-03-27 23:28 44.21292 132.94705 29444 ft 485 kts 32°
2026-03-27 23:28 44.23953 132.97618 29942 ft 485 kts 32°
2026-03-27 23:28 44.26602 133.00520 30437 ft 486 kts 32°
2026-03-27 23:28 44.29229 133.03400 30928 ft 487 kts 32°
2026-03-27 23:29 44.31900 133.06335 31426 ft 486 kts 32°
2026-03-27 23:29 44.34575 133.09277 31928 ft 485 kts 32°
2026-03-27 23:29 44.37220 133.12189 32422 ft 486 kts 32°
2026-03-27 23:29 44.39874 133.15115 32921 ft 487 kts 32°
2026-03-27 23:30 44.42518 133.18034 33416 ft 487 kts 32°
2026-03-27 23:30 44.45155 133.20949 33911 ft 486 kts 32°
2026-03-27 23:30 44.47809 133.23888 34409 ft 485 kts 32°
2026-03-27 23:30 44.50465 133.26831 34911 ft 485 kts 32°
2026-03-27 23:31 44.53109 133.29765 35411 ft 483 kts 32°
2026-03-27 23:31 44.55740 133.32687 35908 ft 483 kts 32°
2026-03-27 23:31 44.58381 133.35623 36089 ft 486 kts 32°
2026-03-27 23:32 44.63670 133.41516 36075 ft 483 kts 32°
2026-03-27 23:32 44.68897 133.47354 36078 ft 482 kts 32°
2026-03-27 23:33 44.74140 133.53221 36081 ft 484 kts 32°
2026-03-27 23:33 44.79393 133.59119 36084 ft 482 kts 32°
2026-03-27 23:34 44.84643 133.65027 36082 ft 483 kts 32°
2026-03-27 23:34 44.89902 133.70949 36071 ft 483 kts 32°
2026-03-27 23:35 44.95143 133.76865 36071 ft 484 kts 33°
2026-03-27 23:35 45.00399 133.82811 36073 ft 482 kts 33°
2026-03-27 23:36 45.05600 133.88711 36074 ft 479 kts 33°
2026-03-27 23:36 45.10798 133.94620 36073 ft 477 kts 34°
2026-03-27 23:37 45.15966 134.00513 36078 ft 475 kts 34°
2026-03-27 23:37 45.21096 134.06375 36073 ft 475 kts 34°
2026-03-27 23:38 45.26261 134.12293 36076 ft 475 kts 34°
2026-03-27 23:38 45.31390 134.18182 36076 ft 476 kts 34°
2026-03-27 23:39 45.36515 134.24083 36075 ft 476 kts 34°
2026-03-27 23:39 45.41660 134.30023 36080 ft 476 kts 34°
2026-03-27 23:40 45.46791 134.35960 36073 ft 477 kts 34°
2026-03-27 23:40 45.51928 134.41921 36046 ft 477 kts 34°
2026-03-27 23:41 45.57069 134.47896 36015 ft 476 kts 34°
2026-03-27 23:41 45.62193 134.53868 36001 ft 476 kts 34°
2026-03-27 23:42 45.67338 134.59880 36000 ft 476 kts 34°
2026-03-27 23:42 45.72467 134.65889 35997 ft 477 kts 34°
2026-03-27 23:43 45.80162 134.74916 35966 ft 476 kts 34°
2026-03-27 23:43 45.85263 134.80908 35962 ft 476 kts 32°
2026-03-27 23:44 45.88065 134.83354 35966 ft 465 kts 18°
2026-03-27 23:44 45.91077 134.84940 35983 ft 461 kts 12°
2026-03-27 23:44 45.97218 134.87089 35969 ft 451 kts
2026-03-27 23:45 46.03402 134.88277 35966 ft 450 kts
2026-03-27 23:45 46.09608 134.89198 35962 ft 449 kts 359°
2026-03-27 23:46 46.15865 134.90057 35964 ft 450 kts 359°
2026-03-27 23:46 46.22061 134.90897 35963 ft 449 kts 359°
2026-03-27 23:47 46.28268 134.91733 35963 ft 450 kts 359°
2026-03-27 23:47 46.34503 134.92574 35964 ft 450 kts 359°
2026-03-27 23:48 46.40721 134.93410 35966 ft 450 kts 359°
2026-03-27 23:48 46.46963 134.94249 35967 ft 449 kts 359°
2026-03-27 23:49 46.53192 134.95085 35964 ft 451 kts 359°
2026-03-27 23:49 46.59435 134.95926 35965 ft 451 kts 359°
2026-03-27 23:50 46.65664 134.96764 35966 ft 451 kts 359°
2026-03-27 23:50 46.71898 134.97604 35964 ft 451 kts 359°
2026-03-27 23:51 46.78102 134.98439 35966 ft 452 kts 359°
2026-03-27 23:51 46.84332 134.99265 35964 ft 451 kts 359°
2026-03-27 23:52 46.90580 135.00038 35972 ft 452 kts 359°
2026-03-27 23:52 46.96855 135.00821 35966 ft 452 kts 359°
2026-03-27 23:53 47.03091 135.01605 35967 ft 453 kts 359°
2026-03-27 23:53 47.09403 135.02403 35966 ft 453 kts 360°
2026-03-27 23:54 47.15672 135.03195 35966 ft 453 kts 360°
2026-03-27 23:54 47.21941 135.03986 35966 ft 454 kts 360°
2026-03-27 23:55 47.28247 135.04782 35965 ft 453 kts 360°
2026-03-27 23:55 47.34535 135.05576 35966 ft 454 kts 360°
2026-03-27 23:56 47.40774 135.06363 35966 ft 454 kts 360°
2026-03-27 23:56 47.47056 135.07156 35966 ft 454 kts 360°
2026-03-27 23:57 47.53340 135.07950 35966 ft 454 kts 360°
2026-03-27 23:57 47.59671 135.08748 35967 ft 454 kts 360°
2026-03-27 23:58 47.65912 135.09537 35967 ft 454 kts 360°
2026-03-27 23:58 47.72236 135.10335 35966 ft 454 kts 360°
2026-03-27 23:59 47.78488 135.11124 35967 ft 454 kts 360°
2026-03-27 23:59 47.84797 135.11929 35967 ft 454 kts
2026-03-28 00:00 47.91071 135.12747 35967 ft 454 kts
2026-03-28 00:00 47.97349 135.13565 35968 ft 454 kts
2026-03-28 00:01 48.03647 135.14384 35967 ft 454 kts
2026-03-28 00:01 48.09906 135.15201 35968 ft 454 kts
2026-03-28 00:02 48.16235 135.16028 35967 ft 454 kts
2026-03-28 00:02 48.22513 135.16850 35966 ft 454 kts
2026-03-28 00:03 48.28803 135.17673 35966 ft 454 kts
2026-03-28 00:03 48.35117 135.18498 35967 ft 454 kts
2026-03-28 00:04 48.41373 135.19318 35967 ft 454 kts
2026-03-28 00:04 48.47654 135.19954 35958 ft 449 kts 351°
2026-03-28 00:05 48.50706 135.19168 35982 ft 440 kts 339°
2026-03-28 00:05 48.53633 135.17783 35975 ft 439 kts 336°
2026-03-28 00:05 48.59052 135.13774 35970 ft 429 kts 320°
2026-03-28 00:06 48.63684 135.08234 35967 ft 424 kts 315°
2026-03-28 00:06 48.68100 135.02351 35966 ft 422 kts 314°
2026-03-28 00:07 48.72450 134.96413 35966 ft 419 kts 313°
2026-03-28 00:07 48.76769 134.90486 35965 ft 418 kts 313°
2026-03-28 00:08 48.81055 134.84601 35964 ft 416 kts 313°
2026-03-28 00:08 48.85334 134.78728 35965 ft 417 kts 313°
2026-03-28 00:09 48.89648 134.72809 35964 ft 417 kts 314°
2026-03-28 00:09 48.93942 134.66917 35963 ft 417 kts 313°
2026-03-28 00:10 48.98206 134.60974 35963 ft 417 kts 313°
2026-03-28 00:10 49.02479 134.55003 35963 ft 418 kts 313°
2026-03-28 00:11 49.06775 134.49004 35963 ft 419 kts 313°
2026-03-28 00:11 49.11463 134.43568 35968 ft 427 kts 321°
2026-03-28 00:12 49.16416 134.38585 35961 ft 427 kts 321°
2026-03-28 00:12 49.21370 134.33571 35965 ft 425 kts 321°
2026-03-28 00:13 49.26305 134.28548 35966 ft 426 kts 320°
2026-03-28 00:13 49.31201 134.23561 35966 ft 426 kts 321°
2026-03-28 00:14 49.36141 134.18532 35969 ft 426 kts 321°
2026-03-28 00:14 49.41071 134.13515 35968 ft 426 kts 321°
2026-03-28 00:15 49.46018 134.08484 35969 ft 426 kts 321°
2026-03-28 00:15 49.50934 134.03455 35967 ft 426 kts 320°
2026-03-28 00:16 49.55829 133.98378 35967 ft 425 kts 320°
2026-03-28 00:16 49.60756 133.93249 35966 ft 425 kts 320°
2026-03-28 00:17 49.65640 133.88161 35964 ft 426 kts 320°
2026-03-28 00:17 49.70562 133.83032 35965 ft 426 kts 320°
2026-03-28 00:18 49.75471 133.77920 35965 ft 425 kts 321°
2026-03-28 00:18 49.80362 133.72829 35965 ft 426 kts 321°
2026-03-28 00:19 49.85275 133.67717 35965 ft 425 kts 321°
2026-03-28 00:19 49.90177 133.62619 35965 ft 426 kts 321°
2026-03-28 00:20 49.95085 133.57516 35965 ft 425 kts 321°
2026-03-28 00:20 50.00009 133.52400 35963 ft 426 kts 321°
2026-03-28 00:21 50.04926 133.47293 35962 ft 426 kts 321°
2026-03-28 00:21 50.09839 133.42186 35963 ft 426 kts 321°
2026-03-28 00:22 50.14691 133.36926 35960 ft 425 kts 320°
2026-03-28 00:22 50.19533 133.31584 35968 ft 424 kts 319°
2026-03-28 00:23 50.24338 133.26265 35969 ft 424 kts 319°
2026-03-28 00:23 50.29162 133.20927 35967 ft 425 kts 319°
2026-03-28 00:24 50.33972 133.15605 35967 ft 425 kts 319°
2026-03-28 00:24 50.38782 133.10286 35966 ft 424 kts 319°
2026-03-28 00:25 50.43602 133.04959 35966 ft 424 kts 319°
2026-03-28 00:25 50.48425 132.99632 35966 ft 424 kts 319°
2026-03-28 00:26 50.53228 132.94330 35966 ft 424 kts 319°
2026-03-28 00:26 50.58071 132.88985 35965 ft 424 kts 319°
2026-03-28 00:27 50.62893 132.83667 35965 ft 424 kts 319°
2026-03-28 00:27 50.67709 132.78355 35964 ft 424 kts 319°
2026-03-28 00:28 50.72537 132.73036 35964 ft 424 kts 320°
2026-03-28 00:28 50.77370 132.67714 35964 ft 424 kts 320°
2026-03-28 00:29 50.82180 132.62419 35963 ft 424 kts 320°
2026-03-28 00:29 50.87023 132.57089 35963 ft 424 kts 320°
2026-03-28 00:30 50.91871 132.51761 35963 ft 424 kts 319°
2026-03-28 00:30 50.96709 132.46445 35962 ft 423 kts 319°
2026-03-28 00:31 51.01550 132.41127 35961 ft 423 kts 318°
2026-03-28 00:31 51.06383 132.35818 35963 ft 423 kts 318°
2026-03-28 00:32 51.11223 132.30498 35969 ft 423 kts 317°
2026-03-28 00:32 51.16055 132.25191 35967 ft 423 kts 317°
2026-03-28 00:33 51.20849 132.19809 35965 ft 420 kts 314°
2026-03-28 00:33 51.25447 132.14073 35970 ft 418 kts 314°
2026-03-28 00:34 51.30015 132.08337 35966 ft 419 kts 314°
2026-03-28 00:34 51.34602 132.02594 35968 ft 420 kts 314°
2026-03-28 00:35 51.39221 131.96820 35969 ft 420 kts 314°
2026-03-28 00:35 51.43790 131.91115 35964 ft 419 kts 314°
2026-03-28 00:36 51.48409 131.85349 35956 ft 419 kts 314°
2026-03-28 00:36 51.52996 131.79627 35947 ft 420 kts 314°
2026-03-28 00:37 51.57639 131.73840 35939 ft 421 kts 314°
2026-03-28 00:37 51.62227 131.68121 35935 ft 419 kts 315°
2026-03-28 00:38 51.66863 131.62346 35940 ft 419 kts 315°
2026-03-28 00:38 51.71493 131.56586 35935 ft 421 kts 315°
2026-03-28 00:39 51.76091 131.50870 35936 ft 420 kts 315°
2026-03-28 00:39 51.80709 131.45114 35937 ft 421 kts 314°
2026-03-28 00:40 51.85295 131.39264 35930 ft 418 kts 314°
2026-03-28 00:40 51.89861 131.33412 35946 ft 421 kts 313°
2026-03-28 00:41 51.94450 131.27531 35944 ft 418 kts 314°
2026-03-28 00:41 51.99008 131.21696 35947 ft 420 kts 314°
2026-03-28 00:42 52.03574 131.15857 35942 ft 418 kts 314°
2026-03-28 00:43 52.10426 131.07047 35944 ft 419 kts 313°
2026-03-28 00:43 52.14920 131.01121 35938 ft 418 kts 313°
2026-03-28 00:44 52.19432 130.95132 35940 ft 418 kts 313°
2026-03-28 00:44 52.23941 130.89134 35937 ft 419 kts 312°
2026-03-28 00:45 52.28464 130.83119 35936 ft 419 kts 312°
2026-03-28 00:45 52.32972 130.77125 35936 ft 420 kts 312°
2026-03-28 00:46 52.37503 130.71106 35935 ft 420 kts 312°
2026-03-28 00:46 52.42048 130.65071 35934 ft 420 kts 312°
2026-03-28 00:47 52.46565 130.59079 35934 ft 420 kts 312°
2026-03-28 00:47 52.51109 130.53053 35934 ft 420 kts 313°
2026-03-28 00:48 52.55655 130.47031 35933 ft 420 kts 313°
2026-03-28 00:48 52.60205 130.41005 35933 ft 421 kts 313°
2026-03-28 00:49 52.64758 130.34981 35933 ft 421 kts 312°
2026-03-28 00:49 52.69317 130.28944 35943 ft 420 kts 312°
2026-03-28 00:50 52.73869 130.22923 35943 ft 420 kts 312°
2026-03-28 00:50 52.78435 130.16891 35943 ft 420 kts 312°
2026-03-28 00:51 52.83006 130.10858 35942 ft 420 kts 312°
2026-03-28 00:51 52.87581 130.04825 35942 ft 420 kts 312°
2026-03-28 00:52 52.92141 129.98814 35942 ft 420 kts 313°
2026-03-28 00:52 52.96692 129.92767 35941 ft 419 kts 311°
2026-03-28 00:53 53.01182 129.86563 35941 ft 421 kts 311°
2026-03-28 00:53 53.05681 129.80307 35940 ft 421 kts 311°
2026-03-28 00:54 53.10169 129.74063 35944 ft 424 kts 311°
2026-03-28 00:54 53.16969 129.64613 35937 ft 424 kts 311°
2026-03-28 00:55 53.21469 129.58368 35934 ft 423 kts 311°
2026-03-28 00:55 53.25983 129.52104 35927 ft 424 kts 311°
2026-03-28 00:56 53.30519 129.45813 35929 ft 424 kts 311°
2026-03-28 00:56 53.35055 129.39526 35933 ft 424 kts 311°
2026-03-28 00:57 53.39620 129.33205 35940 ft 424 kts 311°
2026-03-28 00:57 53.44149 129.26933 35940 ft 422 kts 311°
2026-03-28 00:58 53.48684 129.20656 35940 ft 425 kts 311°
2026-03-28 00:58 53.53246 129.14354 35938 ft 422 kts 311°
2026-03-28 00:59 53.57733 129.07991 35942 ft 423 kts 310°
2026-03-28 00:59 53.62210 129.01540 35943 ft 428 kts 311°
2026-03-28 01:00 53.66745 128.95001 35941 ft 433 kts 311°
2026-03-28 01:00 53.71349 128.88362 35942 ft 436 kts 311°
2026-03-28 01:01 53.75957 128.81728 35939 ft 436 kts 311°
2026-03-28 01:01 53.80572 128.75085 35940 ft 437 kts 311°
2026-03-28 01:02 53.85206 128.68420 35938 ft 437 kts 311°
2026-03-28 01:02 53.89823 128.61781 35938 ft 438 kts 311°
2026-03-28 01:03 53.94456 128.55129 35937 ft 435 kts 311°
2026-03-28 01:03 53.99065 128.48514 35937 ft 437 kts 311°
2026-03-28 01:04 54.03709 128.41852 35938 ft 438 kts 312°
2026-03-28 01:04 54.08358 128.35190 35935 ft 436 kts 312°
2026-03-28 01:05 54.12914 128.28481 35938 ft 435 kts 310°
2026-03-28 01:05 54.17486 128.21629 35938 ft 435 kts 310°
2026-03-28 01:06 54.22013 128.14822 35940 ft 434 kts 310°
2026-03-28 01:06 54.26530 128.08029 35936 ft 436 kts 310°
2026-03-28 01:07 54.31089 128.01178 35936 ft 435 kts 310°
2026-03-28 01:07 54.35636 127.94349 35936 ft 435 kts 310°
2026-03-28 01:08 54.40173 127.87543 35937 ft 434 kts 310°
2026-03-28 01:08 54.44711 127.80738 35938 ft 435 kts 310°
2026-03-28 01:09 54.49300 127.73868 35939 ft 435 kts 311°
2026-03-28 01:09 54.53834 127.67081 35938 ft 435 kts 311°
2026-03-28 01:10 54.58421 127.60223 35937 ft 436 kts 311°
2026-03-28 01:10 54.62983 127.53406 35938 ft 436 kts 311°
2026-03-28 01:11 54.67574 127.46551 35939 ft 436 kts 311°
2026-03-28 01:11 54.72151 127.39723 35936 ft 436 kts 311°
2026-03-28 01:12 54.76772 127.32836 35946 ft 436 kts 310°
2026-03-28 01:12 54.81353 127.26011 35943 ft 436 kts 311°
2026-03-28 01:13 54.85977 127.19219 35944 ft 436 kts 311°
2026-03-28 01:13 54.90597 127.12385 35943 ft 439 kts 312°
2026-03-28 01:14 54.95292 127.05411 35942 ft 443 kts 314°
2026-03-28 01:14 54.99955 126.98489 35941 ft 444 kts 315°
2026-03-28 01:15 55.04656 126.91515 35941 ft 445 kts 316°
2026-03-28 01:15 55.09377 126.84520 35941 ft 445 kts 316°
2026-03-28 01:16 55.14094 126.77532 35937 ft 445 kts 316°
2026-03-28 01:16 55.18800 126.70565 35936 ft 445 kts 316°
2026-03-28 01:17 55.23539 126.63554 35937 ft 445 kts 316°
2026-03-28 01:17 55.28266 126.56567 35937 ft 445 kts 317°
2026-03-28 01:18 55.32975 126.49584 35937 ft 445 kts 316°
2026-03-28 01:18 55.37620 126.42448 35937 ft 445 kts 315°
2026-03-28 01:19 55.42254 126.35240 35936 ft 445 kts 315°
2026-03-28 01:19 55.46895 126.28005 35940 ft 444 kts 315°
2026-03-28 01:20 55.51521 126.20795 35940 ft 444 kts 315°
2026-03-28 01:20 55.56158 126.13573 35940 ft 444 kts 315°
2026-03-28 01:21 55.60781 126.06381 35940 ft 444 kts 315°
2026-03-28 01:21 55.65430 125.99153 35940 ft 444 kts 315°
2026-03-28 01:22 55.70065 125.91954 35940 ft 445 kts 315°
2026-03-28 01:22 55.74735 125.84709 35939 ft 445 kts 315°
2026-03-28 01:23 55.79382 125.77504 35939 ft 445 kts 315°
2026-03-28 01:23 55.84032 125.70301 35940 ft 445 kts 316°
2026-03-28 01:24 55.88693 125.63087 35939 ft 445 kts 316°
2026-03-28 01:24 55.93377 125.55844 35940 ft 445 kts 316°
2026-03-28 01:25 55.98044 125.48636 35939 ft 445 kts 316°
2026-03-28 01:25 56.02705 125.41441 35939 ft 445 kts 316°
2026-03-28 01:26 56.07391 125.34201 35940 ft 444 kts 315°
2026-03-28 01:26 56.12010 125.26801 35937 ft 444 kts 314°
2026-03-28 01:27 56.16579 125.19427 35938 ft 444 kts 314°
2026-03-28 01:27 56.21193 125.11987 35938 ft 444 kts 314°
2026-03-28 01:28 56.25798 125.04570 35938 ft 444 kts 314°
2026-03-28 01:28 56.30377 124.97199 35938 ft 446 kts 315°
2026-03-28 01:29 56.35020 124.89734 35938 ft 448 kts 315°
2026-03-28 01:29 56.39690 124.82217 35938 ft 450 kts 315°
2026-03-28 01:30 56.44290 124.74618 35938 ft 450 kts 315°
2026-03-28 01:30 56.48897 124.66914 35938 ft 449 kts 315°
2026-03-28 01:31 56.53455 124.59273 35938 ft 450 kts 315°
2026-03-28 01:31 56.58062 124.51548 35938 ft 450 kts 315°
2026-03-28 01:32 56.62672 124.43826 35938 ft 450 kts 315°
2026-03-28 01:32 56.67266 124.36139 35938 ft 450 kts 315°
2026-03-28 01:33 56.71859 124.28461 35940 ft 449 kts 315°
2026-03-28 01:33 56.76454 124.20786 35941 ft 449 kts 315°
2026-03-28 01:34 56.81067 124.13092 35940 ft 449 kts 315°
2026-03-28 01:34 56.85687 124.05392 35940 ft 449 kts 315°
2026-03-28 01:35 56.90299 123.97712 35941 ft 449 kts 315°
2026-03-28 01:35 56.94896 123.90067 35941 ft 450 kts 315°
2026-03-28 01:36 56.99544 123.82343 35940 ft 447 kts 315°
2026-03-28 01:36 57.04105 123.74771 35939 ft 444 kts 316°
2026-03-28 01:37 57.08644 123.67149 35939 ft 442 kts 315°
2026-03-28 01:37 57.13113 123.59425 35937 ft 441 kts 315°
2026-03-28 01:38 57.17592 123.51678 35938 ft 441 kts 315°
2026-03-28 01:38 57.21996 123.43808 35937 ft 441 kts 314°
2026-03-28 01:39 57.26339 123.35860 35937 ft 441 kts 314°
2026-03-28 01:39 57.30680 123.27861 35939 ft 440 kts 313°
2026-03-28 01:40 57.35015 123.19865 35939 ft 440 kts 313°
2026-03-28 01:40 57.39339 123.11896 35939 ft 440 kts 313°
2026-03-28 01:41 57.43697 123.03870 35939 ft 442 kts 314°
2026-03-28 01:41 57.48052 122.95861 35939 ft 444 kts 314°
2026-03-28 01:42 57.52473 122.87740 35939 ft 445 kts 315°
2026-03-28 01:42 57.56838 122.79734 35938 ft 445 kts 315°
2026-03-28 01:43 57.61260 122.71629 35939 ft 445 kts 315°
2026-03-28 01:43 57.65653 122.63589 35938 ft 445 kts 315°
2026-03-28 01:44 57.70087 122.55479 35938 ft 445 kts 315°
2026-03-28 01:44 57.74480 122.47456 35939 ft 445 kts 315°
2026-03-28 01:45 57.78902 122.39387 35938 ft 445 kts 315°
2026-03-28 01:45 57.83329 122.31317 35939 ft 445 kts 315°
2026-03-28 01:46 57.87788 122.23200 35939 ft 445 kts 315°
2026-03-28 01:46 57.92208 122.15163 35939 ft 445 kts 315°
2026-03-28 01:47 57.96663 122.07071 35939 ft 445 kts 315°
2026-03-28 01:47 58.01123 121.98979 35939 ft 445 kts 315°
2026-03-28 01:48 58.05548 121.90962 35939 ft 445 kts 315°
2026-03-28 01:48 58.10001 121.82901 35908 ft 445 kts 316°
2026-03-28 01:49 58.14481 121.74801 35871 ft 445 kts 316°
2026-03-28 01:49 58.18970 121.66694 35835 ft 445 kts 316°
2026-03-28 01:50 58.23437 121.58636 35831 ft 445 kts 316°
2026-03-28 01:50 58.27926 121.50547 35830 ft 445 kts 316°
2026-03-28 01:51 58.32407 121.42482 35830 ft 445 kts 316°
2026-03-28 01:51 58.36886 121.34428 35830 ft 445 kts 316°
2026-03-28 01:52 58.41374 121.26369 35831 ft 445 kts 316°
2026-03-28 01:52 58.45840 121.18233 35831 ft 445 kts 314°
2026-03-28 01:53 58.50179 121.09789 35830 ft 444 kts 314°
2026-03-28 01:53 58.54505 121.01369 35831 ft 445 kts 314°
2026-03-28 01:54 58.58838 120.92963 35831 ft 447 kts 315°
2026-03-28 01:54 58.63213 120.84493 35830 ft 447 kts 315°
2026-03-28 01:55 58.67250 120.75521 35837 ft 446 kts 307°
2026-03-28 01:55 58.70928 120.65871 35831 ft 447 kts 306°
2026-03-28 01:56 58.74585 120.56222 35831 ft 447 kts 307°
2026-03-28 01:56 58.78247 120.46591 35831 ft 447 kts 307°
2026-03-28 01:57 58.81911 120.36980 35831 ft 447 kts 307°
2026-03-28 01:57 58.85598 120.27328 35831 ft 447 kts 306°
2026-03-28 01:58 58.89290 120.17682 35831 ft 446 kts 306°
2026-03-28 01:58 58.92989 120.08036 35830 ft 444 kts 307°
2026-03-28 01:59 58.96658 119.98488 35830 ft 444 kts 307°
2026-03-28 01:59 59.00339 119.88924 35830 ft 444 kts 307°
2026-03-28 02:00 59.04036 119.79341 35830 ft 445 kts 308°
2026-03-28 02:00 59.07750 119.69734 35829 ft 445 kts 308°
2026-03-28 02:01 59.11476 119.60112 35832 ft 445 kts 308°
2026-03-28 02:01 59.15066 119.50317 35832 ft 445 kts 306°
2026-03-28 02:02 59.18595 119.40310 35832 ft 445 kts 306°
2026-03-28 02:02 59.22078 119.30357 35831 ft 446 kts 305°
2026-03-28 02:03 59.25572 119.20370 35831 ft 446 kts 305°
2026-03-28 02:03 59.29066 119.10397 35831 ft 446 kts 305°
2026-03-28 02:04 59.32594 119.00350 35831 ft 446 kts 306°
2026-03-28 02:04 59.36096 118.90393 35831 ft 445 kts 306°
2026-03-28 02:05 59.41359 118.75478 35831 ft 445 kts 306°
2026-03-28 02:06 59.44891 118.65492 35831 ft 445 kts 307°
2026-03-28 02:06 59.48430 118.55510 35831 ft 445 kts 307°
2026-03-28 02:07 59.51971 118.45541 35831 ft 445 kts 307°
2026-03-28 02:07 59.55512 118.35597 35831 ft 445 kts 307°
2026-03-28 02:08 59.59072 118.25616 35830 ft 445 kts 306°
2026-03-28 02:08 59.62643 118.15629 35830 ft 445 kts 307°
2026-03-28 02:09 59.66205 118.05685 35830 ft 445 kts 307°
2026-03-28 02:09 59.69775 117.95740 35830 ft 445 kts 307°
2026-03-28 02:10 59.73354 117.85796 35830 ft 445 kts 307°
2026-03-28 02:10 59.76949 117.75822 35830 ft 445 kts 307°
2026-03-28 02:11 59.80565 117.65814 35830 ft 445 kts 307°
2026-03-28 02:11 59.84166 117.55868 35830 ft 445 kts 308°
2026-03-28 02:12 59.87783 117.45896 35830 ft 445 kts 308°
2026-03-28 02:12 59.91311 117.35831 35830 ft 445 kts 305°
2026-03-28 02:13 59.94667 117.25427 35829 ft 446 kts 304°
2026-03-28 02:13 59.98011 117.14990 35829 ft 445 kts 304°
2026-03-28 02:14 60.01344 117.04603 35829 ft 445 kts 304°
2026-03-28 02:14 60.04691 116.94196 35829 ft 446 kts 305°
2026-03-28 02:15 60.08056 116.83764 35828 ft 446 kts 305°
2026-03-28 02:15 60.11411 116.73389 35833 ft 446 kts 306°
2026-03-28 02:16 60.14795 116.62948 35833 ft 446 kts 306°
2026-03-28 02:16 60.18180 116.52528 35833 ft 446 kts 306°
2026-03-28 02:17 60.21567 116.42127 35833 ft 446 kts 306°
2026-03-28 02:17 60.24983 116.31664 35831 ft 446 kts 305°
2026-03-28 02:18 60.28385 116.21264 35831 ft 446 kts 306°
2026-03-28 02:18 60.31818 116.10797 35831 ft 446 kts 306°
2026-03-28 02:19 60.35242 116.00381 35831 ft 446 kts 306°
2026-03-28 02:19 60.38596 115.89859 35831 ft 447 kts 304°
2026-03-28 02:20 60.41859 115.79157 35831 ft 447 kts 304°
2026-03-28 02:20 60.45114 115.68441 35831 ft 447 kts 304°
2026-03-28 02:21 60.48364 115.57754 35831 ft 447 kts 304°
2026-03-28 02:21 60.51638 115.47017 35831 ft 447 kts 304°
2026-03-28 02:22 60.54899 115.36350 35831 ft 446 kts 304°
2026-03-28 02:22 60.58180 115.25642 35830 ft 447 kts 304°
2026-03-28 02:23 60.61478 115.14909 35830 ft 447 kts 304°
2026-03-28 02:23 60.64784 115.04175 35830 ft 447 kts 305°
2026-03-28 02:24 60.68088 114.93476 35830 ft 447 kts 306°
2026-03-28 02:24 60.71402 114.82777 35830 ft 447 kts 306°
2026-03-28 02:25 60.74799 114.72175 35830 ft 447 kts 306°
2026-03-28 02:25 60.78121 114.61449 35830 ft 447 kts 306°
2026-03-28 02:26 60.81385 114.50642 35830 ft 447 kts 305°
2026-03-28 02:26 60.84640 114.39800 35829 ft 447 kts 305°
2026-03-28 02:27 60.87913 114.28908 35828 ft 448 kts 304°
2026-03-28 02:27 60.91177 114.18064 35828 ft 448 kts 305°
2026-03-28 02:28 60.94449 114.07224 35828 ft 447 kts 305°
2026-03-28 02:28 60.97739 113.96345 35828 ft 447 kts 305°
2026-03-28 02:29 61.01025 113.85516 35828 ft 447 kts 305°
2026-03-28 02:29 61.04323 113.74672 35828 ft 447 kts 306°
2026-03-28 02:30 61.07616 113.63873 35828 ft 446 kts 306°
2026-03-28 02:30 61.10953 113.52959 35833 ft 447 kts 306°
2026-03-28 02:31 61.14275 113.42122 35833 ft 446 kts 306°
2026-03-28 02:31 61.17594 113.31323 35832 ft 447 kts 306°
2026-03-28 02:32 61.20934 113.20480 35832 ft 447 kts 306°
2026-03-28 02:32 61.24303 113.09573 35832 ft 447 kts 306°
2026-03-28 02:33 61.27647 112.98778 35833 ft 446 kts 306°
2026-03-28 02:33 61.30999 112.87973 35832 ft 445 kts 307°
2026-03-28 02:34 61.34354 112.77196 35832 ft 444 kts 307°
2026-03-28 02:34 61.37712 112.66439 35833 ft 444 kts 308°
2026-03-28 02:35 61.41092 112.55639 35832 ft 444 kts 308°
2026-03-28 02:35 61.44461 112.44896 35833 ft 444 kts 308°
2026-03-28 02:36 61.47841 112.34147 35832 ft 444 kts 307°
2026-03-28 02:36 61.51255 112.23315 35830 ft 444 kts 308°
2026-03-28 02:37 61.54671 112.12505 35830 ft 444 kts 308°
2026-03-28 02:37 61.58070 112.01776 35830 ft 444 kts 308°
2026-03-28 02:38 61.61501 111.90971 35830 ft 444 kts 308°
2026-03-28 02:38 61.64945 111.80153 35830 ft 444 kts 308°
2026-03-28 02:39 61.68382 111.69385 35830 ft 444 kts 308°
2026-03-28 02:39 61.71822 111.58633 35830 ft 444 kts 309°
2026-03-28 02:40 61.75222 111.47749 35829 ft 446 kts 305°
2026-03-28 02:40 61.78240 111.36302 35830 ft 447 kts 303°
2026-03-28 02:41 61.81153 111.24638 35828 ft 448 kts 302°
2026-03-28 02:41 61.84035 111.12981 35828 ft 448 kts 302°
2026-03-28 02:42 61.86932 111.01257 35827 ft 448 kts 302°
2026-03-28 02:42 61.89825 110.89580 35828 ft 448 kts 303°
2026-03-28 02:43 61.94188 110.72053 35828 ft 448 kts 303°
2026-03-28 02:43 61.97091 110.60432 35827 ft 446 kts 304°
2026-03-28 02:44 62.00010 110.48793 35827 ft 447 kts 304°
2026-03-28 02:44 62.02935 110.37163 35827 ft 446 kts 304°
2026-03-28 02:45 62.05873 110.25520 35824 ft 446 kts 303°
2026-03-28 02:45 62.08828 110.13851 35824 ft 447 kts 304°
2026-03-28 02:46 62.11787 110.02200 35836 ft 446 kts 304°
2026-03-28 02:46 62.14755 109.90555 35835 ft 446 kts 304°
2026-03-28 02:47 62.17720 109.78958 35835 ft 446 kts 304°
2026-03-28 02:47 62.20702 109.67333 35834 ft 446 kts 304°
2026-03-28 02:48 62.23703 109.55675 35835 ft 447 kts 305°
2026-03-28 02:48 62.26695 109.44086 35835 ft 446 kts 305°
2026-03-28 02:49 62.29715 109.32424 35832 ft 446 kts 304°
2026-03-28 02:49 62.32742 109.20775 35832 ft 447 kts 304°
2026-03-28 02:50 62.35770 109.09148 35832 ft 446 kts 306°
2026-03-28 02:50 62.38811 108.97506 35833 ft 445 kts 307°
2026-03-28 02:51 62.41842 108.85964 35832 ft 445 kts 308°
2026-03-28 02:51 62.44894 108.74374 35832 ft 445 kts 308°
2026-03-28 02:52 62.47970 108.62722 35832 ft 445 kts 308°
2026-03-28 02:52 62.51032 108.51162 35833 ft 445 kts 308°
2026-03-28 02:53 62.54104 108.39599 35833 ft 445 kts 309°
2026-03-28 02:53 62.57201 108.27974 35829 ft 446 kts 308°
2026-03-28 02:54 62.60302 108.16370 35828 ft 445 kts 308°
2026-03-28 02:54 62.63412 108.04766 35829 ft 445 kts 308°
2026-03-28 02:55 62.66527 107.93185 35829 ft 445 kts 309°
2026-03-28 02:55 62.69661 107.81569 35829 ft 445 kts 309°
2026-03-28 02:56 62.72796 107.69984 35829 ft 445 kts 309°
2026-03-28 02:56 62.75946 107.58375 35829 ft 445 kts 309°
2026-03-28 02:57 62.79095 107.46807 35829 ft 445 kts 309°
2026-03-28 02:57 62.82255 107.35236 35829 ft 444 kts 310°
2026-03-28 02:58 62.85445 107.23586 35825 ft 446 kts 309°
2026-03-28 02:58 62.88627 107.11996 35827 ft 443 kts 309°
2026-03-28 02:59 62.91806 107.00451 35825 ft 441 kts 309°
2026-03-28 02:59 62.94700 106.88513 35825 ft 446 kts 305°
2026-03-28 03:00 62.97414 106.76256 35824 ft 446 kts 305°
2026-03-28 03:00 63.00102 106.63976 35824 ft 446 kts 305°
2026-03-28 03:01 63.02788 106.51710 35824 ft 446 kts 305°
2026-03-28 03:01 63.05476 106.39471 35824 ft 446 kts 305°
2026-03-28 03:02 63.08195 106.27140 35821 ft 447 kts 304°
2026-03-28 03:02 63.10934 106.14761 35835 ft 447 kts 305°
2026-03-28 03:03 63.13669 106.02445 35864 ft 446 kts 305°
2026-03-28 03:03 63.16415 105.90134 36047 ft 446 kts 305°
2026-03-28 03:04 63.19176 105.77801 36190 ft 447 kts 306°
2026-03-28 03:04 63.21938 105.65514 36187 ft 446 kts 306°
2026-03-28 03:05 63.24706 105.53245 36188 ft 446 kts 306°
2026-03-28 03:05 63.27490 105.40951 36188 ft 446 kts 306°
2026-03-28 03:06 63.30295 105.28615 36184 ft 447 kts 306°
2026-03-28 03:06 63.33101 105.16311 36184 ft 447 kts 306°
2026-03-28 03:07 63.35919 105.04005 36184 ft 445 kts 306°
2026-03-28 03:07 63.38726 104.91794 36184 ft 444 kts 306°
2026-03-28 03:08 63.41532 104.79633 36184 ft 443 kts 306°
2026-03-28 03:08 63.44365 104.67402 36184 ft 443 kts 306°
2026-03-28 03:09 63.47208 104.55171 36184 ft 443 kts 307°
2026-03-28 03:09 63.50049 104.42998 36184 ft 443 kts 307°
2026-03-28 03:10 63.52915 104.30759 36180 ft 443 kts 306°
2026-03-28 03:10 63.55769 104.18608 36180 ft 444 kts 306°
2026-03-28 03:11 63.58671 104.06301 36180 ft 443 kts 307°
2026-03-28 03:11 63.61452 103.93971 36181 ft 448 kts 303°
2026-03-28 03:12 63.63920 103.81126 36180 ft 450 kts 301°
2026-03-28 03:12 63.66329 103.68108 36181 ft 450 kts 301°
2026-03-28 03:13 63.68732 103.55064 36181 ft 450 kts 301°
2026-03-28 03:13 63.71134 103.42065 36181 ft 450 kts 302°
2026-03-28 03:14 63.73523 103.29181 36176 ft 446 kts 301°
2026-03-28 03:14 63.75935 103.16250 36178 ft 446 kts 301°
2026-03-28 03:15 63.78350 103.03356 36177 ft 444 kts 301°
2026-03-28 03:15 63.80770 102.90497 36177 ft 442 kts 301°
2026-03-28 03:16 63.83180 102.77749 36178 ft 443 kts 301°
2026-03-28 03:16 63.85629 102.64858 36178 ft 442 kts 301°
2026-03-28 03:17 63.88070 102.52070 36178 ft 442 kts 302°
2026-03-28 03:17 63.90523 102.39276 36178 ft 442 kts 302°
2026-03-28 03:18 63.94237 102.20014 36175 ft 443 kts 301°
2026-03-28 03:19 63.96722 102.07203 36175 ft 443 kts 301°
2026-03-28 03:19 63.99222 101.94367 36175 ft 443 kts 302°
2026-03-28 03:20 64.01721 101.81598 36175 ft 443 kts 302°
2026-03-28 03:20 64.04237 101.68800 36175 ft 443 kts 302°
2026-03-28 03:21 64.06765 101.56001 36175 ft 442 kts 302°
2026-03-28 03:21 64.09296 101.43238 36175 ft 442 kts 303°
2026-03-28 03:22 64.11850 101.30420 36187 ft 443 kts 302°
2026-03-28 03:22 64.14432 101.17512 36186 ft 443 kts 302°
2026-03-28 03:23 64.17005 101.04703 36187 ft 443 kts 302°
2026-03-28 03:23 64.19575 100.91972 36186 ft 440 kts 302°
2026-03-28 03:24 64.22147 100.79280 36186 ft 436 kts 302°
2026-03-28 03:24 64.24723 100.66632 36187 ft 436 kts 302°
2026-03-28 03:25 64.27286 100.54092 36186 ft 436 kts 302°
2026-03-28 03:25 64.29657 100.41098 36183 ft 446 kts 292°
2026-03-28 03:26 64.30915 100.26978 36184 ft 453 kts 286°
2026-03-28 03:26 64.31841 100.12585 36184 ft 454 kts 284°
2026-03-28 03:27 64.32701 99.98146 36184 ft 454 kts 284°
2026-03-28 03:27 64.33552 99.83791 36184 ft 454 kts 285°
2026-03-28 03:28 64.34420 99.69313 36185 ft 454 kts 285°
2026-03-28 03:28 64.35294 99.54971 36185 ft 454 kts 285°
2026-03-28 03:29 64.36187 99.40514 36186 ft 450 kts 285°
2026-03-28 03:29 64.37083 99.26267 36185 ft 450 kts 285°
2026-03-28 03:30 64.37994 99.11993 36183 ft 451 kts 285°
2026-03-28 03:30 64.38921 98.97702 36183 ft 448 kts 285°
2026-03-28 03:31 64.39854 98.83508 36183 ft 445 kts 284°
2026-03-28 03:31 64.40795 98.69385 36184 ft 446 kts 285°
2026-03-28 03:32 64.41756 98.55190 36183 ft 446 kts 285°
2026-03-28 03:32 64.42730 98.40988 36183 ft 446 kts 285°
2026-03-28 03:33 64.43718 98.26800 36183 ft 446 kts 284°
2026-03-28 03:33 64.44719 98.12610 36182 ft 446 kts 285°
2026-03-28 03:34 64.45730 97.98477 36182 ft 446 kts 285°
2026-03-28 03:34 64.46755 97.84337 36182 ft 446 kts 285°
2026-03-28 03:35 64.47791 97.70222 36182 ft 446 kts 285°
2026-03-28 03:35 64.48850 97.56000 36182 ft 446 kts 286°
2026-03-28 03:36 64.49918 97.41817 36182 ft 446 kts 286°
2026-03-28 03:36 64.51002 97.27619 36182 ft 446 kts 285°
2026-03-28 03:37 64.52094 97.13488 36182 ft 446 kts 285°
2026-03-28 03:37 64.53206 96.99275 36181 ft 443 kts 285°
2026-03-28 03:38 64.54311 96.85304 36204 ft 443 kts 285°
2026-03-28 03:38 64.55442 96.71191 36252 ft 443 kts 285°
2026-03-28 03:39 64.56578 96.57185 36262 ft 443 kts 285°
2026-03-28 03:39 64.57729 96.43150 36262 ft 443 kts 286°
2026-03-28 03:40 64.58900 96.29051 36262 ft 443 kts 285°
2026-03-28 03:40 64.60079 96.14992 36262 ft 443 kts 285°
2026-03-28 03:41 64.61282 96.00830 36262 ft 443 kts 286°
2026-03-28 03:41 64.62485 95.86806 36262 ft 443 kts 286°
2026-03-28 03:42 64.63708 95.72716 36262 ft 443 kts 286°
2026-03-28 03:42 64.64947 95.58606 36262 ft 443 kts 287°
2026-03-28 03:43 64.66189 95.44607 36262 ft 443 kts 287°
2026-03-28 03:43 64.67451 95.30524 36261 ft 443 kts 286°
2026-03-28 03:44 64.68733 95.16379 36185 ft 443 kts 286°
2026-03-28 03:44 64.70014 95.02368 35976 ft 440 kts 287°
2026-03-28 03:45 64.71310 94.88380 35876 ft 440 kts 286°
2026-03-28 03:45 64.72617 94.74390 35773 ft 441 kts 286°
2026-03-28 03:45 64.73277 94.67387 35621 ft 442 kts 286°
2026-03-28 03:46 64.73943 94.60331 35493 ft 441 kts 286°
2026-03-28 03:46 64.74608 94.53339 35389 ft 441 kts 287°
2026-03-28 03:46 64.75272 94.46385 35369 ft 440 kts 287°
2026-03-28 03:47 64.76619 94.32406 35369 ft 441 kts 286°
2026-03-28 03:47 64.77983 94.18359 35369 ft 441 kts 286°
2026-03-28 03:48 64.79122 94.04154 35371 ft 444 kts 280°
2026-03-28 03:48 64.79659 93.89680 35369 ft 446 kts 278°
2026-03-28 03:49 64.80051 93.75184 35369 ft 446 kts 277°
2026-03-28 03:49 64.80421 93.60655 35369 ft 446 kts 277°
2026-03-28 03:50 64.80799 93.46084 35369 ft 446 kts 277°
2026-03-28 03:50 64.81187 93.31572 35369 ft 446 kts 277°
2026-03-28 03:51 64.81587 93.17065 35369 ft 446 kts 277°
2026-03-28 03:51 64.82004 93.02522 35369 ft 445 kts 277°
2026-03-28 03:52 64.82432 92.88046 35369 ft 443 kts 277°
2026-03-28 03:52 64.82873 92.73574 35369 ft 443 kts 277°
2026-03-28 03:53 64.83328 92.59122 35369 ft 443 kts 277°
2026-03-28 03:53 64.83796 92.44712 35369 ft 443 kts 278°
2026-03-28 03:54 64.84277 92.30341 35369 ft 443 kts 277°
2026-03-28 03:54 64.84775 92.15885 35369 ft 443 kts 277°
2026-03-28 03:55 64.85285 92.01472 35369 ft 443 kts 278°
2026-03-28 03:55 64.85813 91.86958 35369 ft 443 kts 278°
2026-03-28 03:56 64.86352 91.72555 35369 ft 443 kts 278°
2026-03-28 03:56 64.86905 91.58124 35369 ft 443 kts 278°
2026-03-28 03:57 64.87470 91.43741 35369 ft 442 kts 279°
2026-03-28 03:57 64.88053 91.29252 35369 ft 443 kts 278°
2026-03-28 03:58 64.88649 91.14792 35369 ft 443 kts 278°
2026-03-28 03:58 64.89256 91.00446 35369 ft 441 kts 278°
2026-03-28 03:59 64.89875 90.86067 35370 ft 441 kts 278°
2026-03-28 03:59 64.90507 90.71729 35369 ft 440 kts 278°
2026-03-28 04:00 64.91155 90.57346 35369 ft 440 kts 278°
2026-03-28 04:00 64.91818 90.42947 35369 ft 440 kts 278°
2026-03-28 04:01 64.92490 90.28667 35370 ft 440 kts 278°
2026-03-28 04:01 64.93180 90.14259 35370 ft 440 kts 278°
2026-03-28 04:02 64.93881 89.99941 35370 ft 440 kts 278°
2026-03-28 04:02 64.94598 89.85560 35369 ft 440 kts 279°
2026-03-28 04:03 64.95328 89.71222 35370 ft 440 kts 279°
2026-03-28 04:03 64.96074 89.56821 35369 ft 440 kts 279°
2026-03-28 04:04 64.96830 89.42504 35369 ft 440 kts 279°
2026-03-28 04:04 64.97596 89.28243 35370 ft 441 kts 279°
2026-03-28 04:05 64.98383 89.13847 35369 ft 440 kts 279°
2026-03-28 04:05 64.99180 88.99516 35369 ft 440 kts 279°
2026-03-28 04:06 64.99989 88.85240 35369 ft 438 kts 279°
2026-03-28 04:06 65.00812 88.70962 35370 ft 438 kts 279°
2026-03-28 04:07 65.01650 88.56639 35370 ft 438 kts 279°
2026-03-28 04:07 65.02497 88.42387 35369 ft 438 kts 279°
2026-03-28 04:08 65.03180 88.27987 35372 ft 439 kts 274°
2026-03-28 04:08 65.03496 88.13560 35370 ft 439 kts 274°
2026-03-28 04:09 65.03833 87.99036 35370 ft 439 kts 274°
2026-03-28 04:09 65.04117 87.84651 35370 ft 440 kts 272°
2026-03-28 04:10 65.04176 87.70199 35370 ft 439 kts 271°
2026-03-28 04:10 65.04149 87.55645 35370 ft 440 kts 271°
2026-03-28 04:11 65.04108 87.41265 35369 ft 440 kts 271°
2026-03-28 04:11 65.04075 87.26785 35371 ft 440 kts 270°
2026-03-28 04:12 65.04053 87.12225 35370 ft 440 kts 271°
2026-03-28 04:12 65.04045 86.97768 35370 ft 440 kts 271°
2026-03-28 04:13 65.04052 86.83285 35370 ft 439 kts 271°
2026-03-28 04:13 65.04072 86.68825 35371 ft 440 kts 271°
2026-03-28 04:14 65.04106 86.54346 35370 ft 439 kts 271°
2026-03-28 04:14 65.04155 86.39848 35370 ft 439 kts 272°
2026-03-28 04:15 65.04216 86.25402 35371 ft 439 kts 271°
2026-03-28 04:15 65.04292 86.10857 35371 ft 440 kts 271°
2026-03-28 04:16 65.04382 85.96484 35370 ft 439 kts 271°
2026-03-28 04:16 65.04487 85.81956 35371 ft 439 kts 272°
2026-03-28 04:17 65.04605 85.67492 35371 ft 439 kts 272°
2026-03-28 04:17 65.04738 85.52979 35370 ft 440 kts 272°
2026-03-28 04:18 65.04884 85.38506 35370 ft 440 kts 272°
2026-03-28 04:18 65.05045 85.24000 35371 ft 439 kts 272°
2026-03-28 04:19 65.05218 85.09591 35371 ft 439 kts 272°
2026-03-28 04:19 65.05406 84.95109 35371 ft 439 kts 272°
2026-03-28 04:20 65.05608 84.80615 35371 ft 439 kts 272°
2026-03-28 04:20 65.05825 84.66099 35371 ft 439 kts 272°
2026-03-28 04:21 65.06055 84.51634 35371 ft 439 kts 272°
2026-03-28 04:21 65.06300 84.37175 35371 ft 439 kts 273°
2026-03-28 04:22 65.06690 84.15504 35371 ft 440 kts 272°
2026-03-28 04:22 65.06969 84.00987 35371 ft 439 kts 272°
2026-03-28 04:23 65.07262 83.86550 35371 ft 439 kts 273°
2026-03-28 04:23 65.07380 83.72096 35372 ft 439 kts 268°
2026-03-28 04:24 65.06930 83.57674 35371 ft 439 kts 265°
2026-03-28 04:24 65.06329 83.43293 35370 ft 439 kts 265°
2026-03-28 04:25 65.05703 83.28896 35372 ft 440 kts 264°
2026-03-28 04:25 65.05077 83.14389 35371 ft 439 kts 264°
2026-03-28 04:26 65.04469 83.00026 35372 ft 439 kts 264°
2026-03-28 04:26 65.03879 82.85779 35371 ft 435 kts 264°
2026-03-28 04:27 65.03300 82.71491 35373 ft 436 kts 263°
2026-03-28 04:27 65.02733 82.57160 35373 ft 436 kts 264°
2026-03-28 04:28 65.02185 82.42960 35372 ft 436 kts 264°
2026-03-28 04:28 65.01644 82.28570 35373 ft 436 kts 263°
2026-03-28 04:29 65.01122 82.14333 35373 ft 436 kts 263°
2026-03-28 04:29 65.00612 82.00026 35474 ft 435 kts 264°
2026-03-28 04:30 65.00363 81.92915 35675 ft 435 kts 264°
2026-03-28 04:30 65.00119 81.85833 35863 ft 436 kts 264°
2026-03-28 04:30 64.99876 81.78692 36018 ft 436 kts 264°
2026-03-28 04:30 64.99635 81.71500 36018 ft 437 kts 264°
2026-03-28 04:31 64.99169 81.57266 36020 ft 435 kts 264°
2026-03-28 04:31 64.98714 81.42999 36021 ft 436 kts 265°
2026-03-28 04:32 64.98274 81.28719 36021 ft 435 kts 264°
2026-03-28 04:32 64.97845 81.14419 36021 ft 435 kts 264°
2026-03-28 04:33 64.97433 81.00203 36022 ft 435 kts 264°
2026-03-28 04:33 64.97034 80.85944 36022 ft 435 kts 264°
2026-03-28 04:34 64.96651 80.71778 36022 ft 435 kts 264°
2026-03-28 04:34 64.96279 80.57565 36021 ft 435 kts 264°
2026-03-28 04:35 64.95921 80.43288 36021 ft 435 kts 265°
2026-03-28 04:35 64.95576 80.29037 36022 ft 434 kts 264°
2026-03-28 04:36 64.95244 80.14854 36023 ft 435 kts 264°
2026-03-28 04:36 64.94926 80.00600 36022 ft 435 kts 265°
2026-03-28 04:37 64.94621 79.86314 36022 ft 435 kts 265°
2026-03-28 04:37 64.94332 79.72086 36021 ft 435 kts 265°
2026-03-28 04:38 64.94057 79.57924 36021 ft 435 kts 265°
2026-03-28 04:38 64.93794 79.43674 36021 ft 435 kts 266°
2026-03-28 04:39 64.93545 79.29469 36022 ft 435 kts 265°
2026-03-28 04:39 64.93307 79.15156 36022 ft 435 kts 265°
2026-03-28 04:40 64.93085 79.00944 36022 ft 436 kts 265°
2026-03-28 04:40 64.92876 78.86618 36022 ft 436 kts 265°
2026-03-28 04:41 64.92680 78.72358 36022 ft 436 kts 265°
2026-03-28 04:41 64.92498 78.58062 36022 ft 436 kts 265°
2026-03-28 04:42 64.92331 78.43855 36022 ft 436 kts 266°
2026-03-28 04:43 64.92102 78.22369 36023 ft 436 kts 265°
2026-03-28 04:43 64.91967 78.08086 36023 ft 436 kts 265°
2026-03-28 04:44 64.91846 77.93765 36023 ft 437 kts 266°
2026-03-28 04:44 64.91740 77.79494 36022 ft 437 kts 266°
2026-03-28 04:45 64.91288 77.65281 36023 ft 436 kts 262°
2026-03-28 04:45 64.90677 77.51022 36022 ft 435 kts 262°
2026-03-28 04:46 64.90090 77.36857 36022 ft 435 kts 262°
2026-03-28 04:46 64.89520 77.22667 36023 ft 435 kts 261°
2026-03-28 04:47 64.88962 77.08431 36022 ft 436 kts 262°
2026-03-28 04:47 64.88419 76.94240 36022 ft 435 kts 261°
2026-03-28 04:48 64.87681 76.80168 36023 ft 434 kts 258°
2026-03-28 04:48 64.86755 76.66167 36022 ft 433 kts 257°
2026-03-28 04:49 64.85777 76.52129 36022 ft 433 kts 257°
2026-03-28 04:49 64.84806 76.38215 36023 ft 434 kts 257°
2026-03-28 04:50 64.83837 76.24207 36023 ft 433 kts 256°
2026-03-28 04:50 64.82883 76.10253 36023 ft 433 kts 257°
2026-03-28 04:51 64.81938 75.96219 36022 ft 433 kts 257°
2026-03-28 04:51 64.81009 75.82210 36022 ft 434 kts 257°
2026-03-28 04:52 64.80093 75.68201 36022 ft 434 kts 257°
2026-03-28 04:52 64.79194 75.54252 36019 ft 434 kts 258°
2026-03-28 04:53 64.78310 75.40335 36004 ft 434 kts 258°
2026-03-28 04:53 64.77431 75.26300 35995 ft 433 kts 257°
2026-03-28 04:54 64.76566 75.12315 35996 ft 434 kts 258°
2026-03-28 04:54 64.75716 74.98300 35995 ft 432 kts 258°
2026-03-28 04:55 64.74886 74.84436 35994 ft 430 kts 258°
2026-03-28 04:55 64.74075 74.70635 35995 ft 431 kts 258°
2026-03-28 04:56 64.73268 74.56705 35994 ft 431 kts 259°
2026-03-28 04:56 64.72478 74.42839 35994 ft 431 kts 259°
2026-03-28 04:57 64.71698 74.28909 35995 ft 430 kts 258°
2026-03-28 04:57 64.70932 74.15034 35995 ft 431 kts 258°
2026-03-28 04:58 64.70184 74.01220 35995 ft 431 kts 259°
2026-03-28 04:58 64.69446 73.87350 35994 ft 431 kts 259°
2026-03-28 04:59 64.68720 73.73473 35994 ft 431 kts 259°
2026-03-28 04:59 64.68005 73.59518 35994 ft 431 kts 259°
2026-03-28 05:00 64.67308 73.45694 35994 ft 432 kts 260°
2026-03-28 05:00 64.66617 73.31707 35994 ft 432 kts 259°
2026-03-28 05:01 64.65938 73.17748 35995 ft 431 kts 259°
2026-03-28 05:01 64.65278 73.03866 35994 ft 429 kts 259°
2026-03-28 05:02 64.64639 72.90175 35994 ft 427 kts 259°
2026-03-28 05:02 64.64007 72.76355 35994 ft 428 kts 259°
2026-03-28 05:03 64.63392 72.62631 35994 ft 428 kts 260°
2026-03-28 05:03 64.62788 72.48837 35993 ft 428 kts 260°
2026-03-28 05:04 64.62194 72.34993 35993 ft 428 kts 260°
2026-03-28 05:04 64.61616 72.21275 35994 ft 427 kts 259°
2026-03-28 05:05 64.60685 72.07580 35995 ft 425 kts 255°
2026-03-28 05:05 64.59544 71.94077 35994 ft 424 kts 254°
2026-03-28 05:06 64.58398 71.80595 35993 ft 424 kts 255°
2026-03-28 05:06 64.57269 71.67219 35993 ft 425 kts 255°
2026-03-28 05:07 64.56143 71.53728 35993 ft 425 kts 255°
2026-03-28 05:07 64.55023 71.40153 35992 ft 425 kts 255°
2026-03-28 05:08 64.53925 71.26730 35993 ft 424 kts 255°
2026-03-28 05:08 64.52832 71.13214 35993 ft 425 kts 255°
2026-03-28 05:09 64.51754 70.99717 35993 ft 425 kts 255°
2026-03-28 05:09 64.50690 70.86214 35993 ft 428 kts 255°
2026-03-28 05:10 64.49628 70.72601 35993 ft 429 kts 255°
2026-03-28 05:10 64.48584 70.59055 35992 ft 429 kts 255°
2026-03-28 05:11 64.47544 70.45393 35992 ft 429 kts 255°
2026-03-28 05:11 64.46520 70.31783 35993 ft 429 kts 255°
2026-03-28 05:12 64.45505 70.18155 35993 ft 429 kts 255°
2026-03-28 05:12 64.44502 70.04502 35992 ft 429 kts 255°
2026-03-28 05:13 64.43470 69.90942 35991 ft 428 kts 253°
2026-03-28 05:13 64.42118 69.77610 35992 ft 426 kts 251°
2026-03-28 05:14 64.40677 69.64356 35991 ft 426 kts 251°
2026-03-28 05:14 64.39221 69.51086 35991 ft 426 kts 251°
2026-03-28 05:15 64.37772 69.37820 35991 ft 427 kts 251°
2026-03-28 05:15 64.36331 69.24545 35955 ft 427 kts 251°
2026-03-28 05:16 64.34897 69.11226 35923 ft 427 kts 251°
2026-03-28 05:16 64.33479 68.97942 35803 ft 430 kts 251°
2026-03-28 05:17 64.32063 68.84531 35624 ft 432 kts 251°
2026-03-28 05:17 64.30656 68.71102 35636 ft 431 kts 252°
2026-03-28 05:18 64.29259 68.57645 35662 ft 432 kts 252°
2026-03-28 05:18 64.27883 68.44286 35641 ft 432 kts 252°
2026-03-28 05:19 64.26505 68.30782 35611 ft 432 kts 251°
2026-03-28 05:19 64.25142 68.17325 35613 ft 431 kts 252°
2026-03-28 05:20 64.23798 68.03934 35612 ft 432 kts 252°
2026-03-28 05:20 64.22464 67.90491 35611 ft 432 kts 252°
2026-03-28 05:21 64.21132 67.76950 35611 ft 432 kts 252°
2026-03-28 05:21 64.19827 67.63564 35611 ft 432 kts 253°
2026-03-28 05:22 64.18528 67.50104 35611 ft 433 kts 253°
2026-03-28 05:22 64.17240 67.36636 35611 ft 433 kts 253°
2026-03-28 05:23 64.15963 67.23161 35611 ft 432 kts 253°
2026-03-28 05:23 64.14696 67.09678 35611 ft 434 kts 253°
2026-03-28 05:24 64.13439 66.96159 35611 ft 435 kts 254°
2026-03-28 05:24 64.12190 66.82557 35611 ft 436 kts 255°
2026-03-28 05:25 64.10961 66.69035 35611 ft 436 kts 255°
2026-03-28 05:25 64.09540 66.55660 35611 ft 434 kts 252°
2026-03-28 05:26 64.07999 66.42252 35611 ft 435 kts 252°
2026-03-28 05:26 64.06472 66.28909 35611 ft 434 kts 251°
2026-03-28 05:27 64.04957 66.15555 35611 ft 434 kts 252°
2026-03-28 05:27 64.03462 66.02263 35611 ft 434 kts 252°
2026-03-28 05:28 64.01970 65.88884 35610 ft 435 kts 252°
2026-03-28 05:28 64.00494 65.75535 35610 ft 435 kts 252°
2026-03-28 05:29 63.99027 65.62157 35610 ft 435 kts 252°
2026-03-28 05:29 63.97483 65.48831 35610 ft 434 kts 252°
2026-03-28 05:30 63.95909 65.35556 35610 ft 434 kts 252°
2026-03-28 05:30 63.94342 65.22298 35610 ft 434 kts 251°
2026-03-28 05:31 63.92792 65.09080 35610 ft 434 kts 251°
2026-03-28 05:31 63.91523 64.95622 35614 ft 438 kts 258°
2026-03-28 05:32 63.90619 64.81947 35611 ft 441 kts 259°
2026-03-28 05:32 63.89688 64.68095 35616 ft 441 kts 259°
2026-03-28 05:33 63.88764 64.54414 35616 ft 441 kts 259°
2026-03-28 05:33 63.87836 64.40610 35616 ft 441 kts 259°
2026-03-28 05:34 63.86768 64.26973 35616 ft 440 kts 256°
2026-03-28 05:34 63.85538 64.13416 35616 ft 440 kts 256°
2026-03-28 05:35 63.84262 63.99820 35616 ft 440 kts 256°
2026-03-28 05:35 63.82990 63.86284 35616 ft 440 kts 256°
2026-03-28 05:36 63.81728 63.72751 35616 ft 440 kts 256°
2026-03-28 05:36 63.80477 63.59214 35616 ft 440 kts 256°
2026-03-28 05:37 63.79245 63.45753 35616 ft 440 kts 256°
2026-03-28 05:37 63.78017 63.32191 35616 ft 440 kts 256°
2026-03-28 05:38 63.76797 63.18584 35616 ft 440 kts 256°
2026-03-28 05:38 63.75597 63.05062 35615 ft 442 kts 257°
2026-03-28 05:39 63.74396 62.91369 35616 ft 446 kts 257°
2026-03-28 05:39 63.73206 62.77634 35615 ft 446 kts 258°
2026-03-28 05:40 63.72033 62.63958 35615 ft 446 kts 258°
2026-03-28 05:40 63.70863 62.50168 35615 ft 446 kts 258°
2026-03-28 05:41 63.69714 62.36475 35615 ft 446 kts 258°
2026-03-28 05:41 63.68571 62.22707 35615 ft 446 kts 258°
2026-03-28 05:42 63.67445 62.08974 35615 ft 446 kts 258°
2026-03-28 05:43 63.65228 61.81466 35615 ft 446 kts 258°
2026-03-28 05:43 63.64144 61.67770 35615 ft 446 kts 259°
2026-03-28 05:44 63.63067 61.54003 35615 ft 446 kts 259°
2026-03-28 05:44 63.62006 61.40263 35615 ft 446 kts 259°
2026-03-28 05:45 63.60960 61.26553 35615 ft 446 kts 258°
2026-03-28 05:45 63.59924 61.12812 35614 ft 448 kts 259°
2026-03-28 05:46 63.58896 60.99006 35615 ft 450 kts 260°
2026-03-28 05:46 63.57877 60.85120 35614 ft 449 kts 260°
2026-03-28 05:47 63.56875 60.71290 35615 ft 449 kts 261°
2026-03-28 05:47 63.55893 60.57545 35765 ft 449 kts 261°
2026-03-28 05:47 63.55402 60.50605 35873 ft 449 kts 261°
2026-03-28 05:48 63.54863 60.43719 35978 ft 449 kts 258°
2026-03-28 05:48 63.53461 60.30009 36051 ft 449 kts 256°
2026-03-28 05:49 63.52061 60.16456 36074 ft 448 kts 256°
2026-03-28 05:49 63.50676 60.02822 36074 ft 448 kts 257°
2026-03-28 05:50 63.49314 59.89264 36043 ft 449 kts 257°
2026-03-28 05:50 63.47789 59.75720 35979 ft 448 kts 250°
2026-03-28 05:51 63.45586 59.62680 35966 ft 448 kts 248°
2026-03-28 05:51 63.43337 59.49721 35966 ft 448 kts 249°
2026-03-28 05:52 63.41098 59.36746 35966 ft 448 kts 249°
2026-03-28 05:52 63.38876 59.23777 35966 ft 448 kts 248°
2026-03-28 05:53 63.36668 59.10823 35966 ft 448 kts 248°
2026-03-28 05:53 63.34459 58.97792 35965 ft 449 kts 249°
2026-03-28 05:54 63.32263 58.84775 35966 ft 454 kts 249°
2026-03-28 05:54 63.30047 58.71557 35966 ft 455 kts 250°
2026-03-28 05:55 63.27855 58.58414 35966 ft 455 kts 250°
2026-03-28 05:55 63.25611 58.45317 35966 ft 455 kts 248°
2026-03-28 05:56 63.23130 58.32382 35966 ft 455 kts 246°
2026-03-28 05:56 63.20589 58.19575 35966 ft 455 kts 246°
2026-03-28 05:57 63.18041 58.06787 35966 ft 455 kts 246°
2026-03-28 05:57 63.15494 57.93980 35966 ft 455 kts 246°
2026-03-28 05:58 63.12959 57.81177 35966 ft 455 kts 246°
2026-03-28 05:58 63.10440 57.68397 35966 ft 455 kts 247°
2026-03-28 05:59 63.07942 57.55665 35966 ft 455 kts 247°
2026-03-28 05:59 63.05433 57.42818 35967 ft 455 kts 247°
2026-03-28 06:00 63.02938 57.29981 35966 ft 455 kts 246°
2026-03-28 06:00 63.00465 57.17193 35966 ft 455 kts 247°
2026-03-28 06:01 62.97995 57.04369 35966 ft 458 kts 247°
2026-03-28 06:01 62.95520 56.91459 35968 ft 463 kts 248°
2026-03-28 06:02 62.93029 56.78402 35968 ft 464 kts 249°
2026-03-28 06:02 62.90555 56.65363 35968 ft 464 kts 249°
2026-03-28 06:03 62.88086 56.52289 35965 ft 464 kts 249°
2026-03-28 06:03 62.85620 56.39172 35965 ft 464 kts 249°
2026-03-28 06:04 62.83184 56.26144 35964 ft 464 kts 249°
2026-03-28 06:04 62.80759 56.13104 35964 ft 464 kts 249°
2026-03-28 06:05 62.78329 55.99979 35965 ft 464 kts 249°
2026-03-28 06:05 62.75939 55.87006 35965 ft 464 kts 249°
2026-03-28 06:06 62.73550 55.73974 35965 ft 464 kts 249°
2026-03-28 06:06 62.71165 55.60902 35973 ft 464 kts 250°
2026-03-28 06:07 62.68795 55.47845 35997 ft 464 kts 250°
2026-03-28 06:07 62.66433 55.34761 36007 ft 464 kts 249°
2026-03-28 06:08 62.63947 55.21808 36014 ft 464 kts 246°
2026-03-28 06:08 62.61237 55.09161 36019 ft 465 kts 246°
2026-03-28 06:09 62.58495 54.96400 36019 ft 465 kts 246°
2026-03-28 06:09 62.55794 54.83765 36020 ft 464 kts 247°
2026-03-28 06:10 62.53096 54.71081 36020 ft 464 kts 247°
2026-03-28 06:10 62.50400 54.58360 36020 ft 464 kts 248°
2026-03-28 06:11 62.47728 54.45689 36020 ft 464 kts 248°
2026-03-28 06:11 62.45063 54.33004 36021 ft 464 kts 247°
2026-03-28 06:12 62.42414 54.20326 36020 ft 464 kts 247°
2026-03-28 06:12 62.39766 54.07605 36020 ft 464 kts 248°
2026-03-28 06:13 62.37129 53.94881 36021 ft 464 kts 248°
2026-03-28 06:13 62.34438 53.82343 36021 ft 464 kts 246°
2026-03-28 06:14 62.31683 53.69829 36021 ft 465 kts 246°
2026-03-28 06:14 62.28927 53.57261 36021 ft 464 kts 247°
2026-03-28 06:15 62.26201 53.44778 36021 ft 464 kts 247°
2026-03-28 06:15 62.23397 53.32266 36021 ft 465 kts 245°
2026-03-28 06:16 62.20531 53.19788 36021 ft 465 kts 245°
2026-03-28 06:16 62.17688 53.07461 36021 ft 465 kts 245°
2026-03-28 06:17 62.14821 52.95003 36021 ft 464 kts 245°
2026-03-28 06:17 62.12004 52.82724 36021 ft 462 kts 245°
2026-03-28 06:18 62.09188 52.70397 36022 ft 462 kts 245°
2026-03-28 06:18 62.06395 52.58123 36022 ft 462 kts 246°
2026-03-28 06:19 62.03594 52.45770 36022 ft 462 kts 246°
2026-03-28 06:19 62.00819 52.33481 36022 ft 462 kts 245°
2026-03-28 06:20 61.98044 52.21133 36022 ft 462 kts 245°
2026-03-28 06:20 61.95182 52.08925 36022 ft 462 kts 244°
2026-03-28 06:21 61.92249 51.96796 36022 ft 462 kts 244°
2026-03-28 06:21 61.89329 51.84689 36019 ft 462 kts 244°
2026-03-28 06:22 61.86405 51.72513 36019 ft 462 kts 244°
2026-03-28 06:22 61.83506 51.60420 36019 ft 462 kts 244°
2026-03-28 06:23 61.80534 51.48380 36019 ft 462 kts 244°
2026-03-28 06:23 61.77528 51.36321 36019 ft 462 kts 244°
2026-03-28 06:24 61.74527 51.24264 36018 ft 462 kts 243°
2026-03-28 06:24 61.71556 51.12293 36019 ft 462 kts 244°
2026-03-28 06:25 61.68589 51.00304 36019 ft 463 kts 244°
2026-03-28 06:25 61.65626 50.88291 36019 ft 464 kts 245°
2026-03-28 06:26 61.62508 50.76407 36020 ft 464 kts 241°
2026-03-28 06:26 61.59203 50.64846 36020 ft 464 kts 241°
2026-03-28 06:27 61.55886 50.53267 36020 ft 464 kts 241°
2026-03-28 06:27 61.52571 50.41658 36020 ft 464 kts 242°
2026-03-28 06:28 61.49268 50.30051 36020 ft 464 kts 241°
2026-03-28 06:28 61.45972 50.18425 36020 ft 464 kts 241°
2026-03-28 06:29 61.41067 50.01070 36020 ft 464 kts 241°
2026-03-28 06:29 61.37807 49.89496 36020 ft 464 kts 242°
2026-03-28 06:30 61.34549 49.77890 36021 ft 464 kts 242°
2026-03-28 06:30 61.31296 49.66269 36021 ft 464 kts 242°
2026-03-28 06:31 61.28067 49.54701 36021 ft 464 kts 242°
2026-03-28 06:31 61.24705 49.43287 36022 ft 465 kts 240°
2026-03-28 06:32 61.21270 49.31893 36021 ft 464 kts 239°
2026-03-28 06:32 61.17852 49.20545 36021 ft 465 kts 239°
2026-03-28 06:33 61.14437 49.09181 36021 ft 463 kts 239°
2026-03-28 06:33 61.11076 48.97965 36019 ft 461 kts 239°
2026-03-28 06:34 61.07711 48.86715 36023 ft 461 kts 240°
2026-03-28 06:34 61.04367 48.75497 36022 ft 461 kts 240°
2026-03-28 06:35 61.01012 48.64214 36023 ft 461 kts 240°
2026-03-28 06:35 60.97684 48.52994 36021 ft 461 kts 240°
2026-03-28 06:36 60.94273 48.41846 36023 ft 461 kts 239°
2026-03-28 06:36 60.90865 48.30730 36022 ft 461 kts 239°
2026-03-28 06:37 60.87406 48.19667 36018 ft 461 kts 238°
2026-03-28 06:37 60.83888 48.08688 36018 ft 461 kts 238°
2026-03-28 06:38 60.80354 47.97715 36018 ft 462 kts 238°
2026-03-28 06:38 60.76834 47.86779 36019 ft 461 kts 238°
2026-03-28 06:39 60.73311 47.75809 36019 ft 461 kts 238°
2026-03-28 06:39 60.69820 47.64915 36018 ft 461 kts 238°
2026-03-28 06:40 60.66312 47.53938 36021 ft 461 kts 238°
2026-03-28 06:40 60.62828 47.43010 36021 ft 461 kts 239°
2026-03-28 06:41 60.59348 47.32063 36020 ft 461 kts 238°
2026-03-28 06:41 60.55871 47.21093 36018 ft 461 kts 238°
2026-03-28 06:42 60.52432 47.10217 36019 ft 460 kts 238°
2026-03-28 06:42 60.48959 46.99210 36022 ft 461 kts 239°
2026-03-28 06:43 60.45547 46.88371 36019 ft 457 kts 239°
2026-03-28 06:43 60.42169 46.77607 36020 ft 454 kts 239°
2026-03-28 06:44 60.38775 46.66816 36009 ft 455 kts 239°
2026-03-28 06:44 60.35238 46.56251 35988 ft 455 kts 238°
2026-03-28 06:45 60.31689 46.45727 35966 ft 454 kts 238°
2026-03-28 06:45 60.28166 46.35261 35969 ft 455 kts 238°
2026-03-28 06:46 60.24617 46.24693 35971 ft 456 kts 237°
2026-03-28 06:46 60.21085 46.14148 35968 ft 455 kts 238°
2026-03-28 06:47 60.17553 46.03582 35968 ft 455 kts 238°
2026-03-28 06:47 60.14044 45.93051 35968 ft 455 kts 238°
2026-03-28 06:48 60.10877 45.82072 35968 ft 454 kts 243°
2026-03-28 06:48 60.07768 45.71099 35989 ft 455 kts 242°
2026-03-28 06:49 60.04631 45.60163 36010 ft 454 kts 242°
2026-03-28 06:49 60.01496 45.49261 36021 ft 454 kts 242°
2026-03-28 06:50 59.98367 45.38355 36020 ft 453 kts 242°
2026-03-28 06:50 59.95242 45.27441 36023 ft 455 kts 242°
2026-03-28 06:51 59.92114 45.16478 36022 ft 454 kts 242°
2026-03-28 06:51 59.88991 45.05501 36018 ft 454 kts 242°
2026-03-28 06:52 59.85902 44.94622 36015 ft 453 kts 243°
2026-03-28 06:52 59.82820 44.83734 36016 ft 451 kts 244°
2026-03-28 06:53 59.79763 44.72888 36018 ft 452 kts 244°
2026-03-28 06:53 59.76615 44.62029 36013 ft 453 kts 242°
2026-03-28 06:54 59.73433 44.51310 36018 ft 452 kts 243°
2026-03-28 06:55 59.68676 44.35242 36023 ft 452 kts 243°
2026-03-28 06:55 59.65462 44.24479 36015 ft 451 kts 242°
2026-03-28 06:56 59.62279 44.13825 36019 ft 452 kts 242°
2026-03-28 06:56 59.59062 44.03103 36022 ft 453 kts 242°
2026-03-28 06:57 59.55733 43.92560 36021 ft 453 kts 240°
2026-03-28 06:57 59.52351 43.82101 36019 ft 453 kts 240°
2026-03-28 06:58 59.48965 43.71684 36019 ft 453 kts 240°
2026-03-28 06:58 59.45598 43.61319 36016 ft 453 kts 241°
2026-03-28 06:59 59.42210 43.50860 36016 ft 452 kts 240°
2026-03-28 06:59 59.38826 43.40389 36018 ft 452 kts 241°
2026-03-28 07:00 59.35471 43.29974 36017 ft 453 kts 240°
2026-03-28 07:00 59.32107 43.19513 36019 ft 454 kts 240°
2026-03-28 07:01 59.28758 43.09074 36021 ft 453 kts 241°
2026-03-28 07:01 59.25425 42.98657 36020 ft 451 kts 242°
2026-03-28 07:02 59.22127 42.88324 36031 ft 450 kts 242°
2026-03-28 07:02 59.18815 42.77918 36055 ft 450 kts 242°
2026-03-28 07:03 59.15536 42.67588 36080 ft 450 kts 242°
2026-03-28 07:03 59.12247 42.57206 36071 ft 450 kts 243°
2026-03-28 07:04 59.08981 42.46867 36074 ft 448 kts 242°
2026-03-28 07:04 59.05729 42.36548 36081 ft 450 kts 243°
2026-03-28 07:05 59.02440 42.26080 36073 ft 451 kts 242°
2026-03-28 07:05 58.99194 42.15726 36078 ft 450 kts 242°
2026-03-28 07:06 58.95939 42.05324 36080 ft 452 kts 242°
2026-03-28 07:06 58.92696 41.94927 36076 ft 451 kts 243°
2026-03-28 07:07 58.89451 41.84491 36072 ft 453 kts 243°
2026-03-28 07:07 58.86215 41.74067 36071 ft 453 kts 243°
2026-03-28 07:08 58.82981 41.63620 36072 ft 454 kts 243°
2026-03-28 07:08 58.79758 41.53178 36070 ft 453 kts 243°
2026-03-28 07:09 58.76585 41.42688 36068 ft 452 kts 248°
2026-03-28 07:09 58.73920 41.31870 36075 ft 450 kts 248°
2026-03-28 07:10 58.71210 41.21004 36070 ft 451 kts 248°
2026-03-28 07:10 58.68477 41.10206 36070 ft 450 kts 248°
2026-03-28 07:11 58.65722 40.99343 36071 ft 450 kts 248°
2026-03-28 07:11 58.63005 40.88609 36072 ft 449 kts 248°
2026-03-28 07:12 58.60284 40.77817 36072 ft 448 kts 249°
2026-03-28 07:12 58.57581 40.67064 36071 ft 449 kts 249°
2026-03-28 07:13 58.54882 40.56298 36074 ft 448 kts 249°
2026-03-28 07:13 58.52210 40.45595 36071 ft 448 kts 249°
2026-03-28 07:14 58.49515 40.34774 36072 ft 447 kts 248°
2026-03-28 07:14 58.46838 40.23980 36076 ft 447 kts 249°
2026-03-28 07:15 58.44182 40.13235 36074 ft 448 kts 249°
2026-03-28 07:15 58.41534 40.02488 36077 ft 448 kts 249°
2026-03-28 07:16 58.38902 39.91769 36073 ft 449 kts 249°
2026-03-28 07:16 58.36254 39.80952 36076 ft 448 kts 249°
2026-03-28 07:17 58.32981 39.70784 36081 ft 459 kts 231°
2026-03-28 07:17 58.28429 39.62266 36074 ft 462 kts 227°
2026-03-28 07:18 58.23655 39.54182 36071 ft 462 kts 225°
2026-03-28 07:18 58.18807 39.46164 36077 ft 462 kts 225°
2026-03-28 07:19 58.13966 39.38191 36078 ft 462 kts 225°
2026-03-28 07:19 58.09121 39.30207 36078 ft 463 kts 224°
2026-03-28 07:20 58.04279 39.22223 36076 ft 462 kts 225°
2026-03-28 07:20 57.99437 39.14228 36082 ft 462 kts 225°
2026-03-28 07:21 57.94627 39.06286 36081 ft 459 kts 225°
2026-03-28 07:21 57.89886 38.98449 36076 ft 455 kts 225°
2026-03-28 07:22 57.85152 38.90611 35749 ft 451 kts 225°
2026-03-28 07:22 57.82805 38.86724 35501 ft 450 kts 225°
2026-03-28 07:22 57.80445 38.82808 35250 ft 451 kts 225°
2026-03-28 07:22 57.78121 38.78951 35004 ft 452 kts 225°
2026-03-28 07:23 57.75768 38.75044 34754 ft 452 kts 225°
2026-03-28 07:23 57.73416 38.71140 34497 ft 452 kts 225°
2026-03-28 07:23 57.71063 38.67232 34245 ft 453 kts 225°
2026-03-28 07:23 57.68698 38.63305 33990 ft 453 kts 225°
2026-03-28 07:24 57.66362 38.59423 33743 ft 453 kts 225°
2026-03-28 07:24 57.63994 38.55486 33493 ft 454 kts 225°
2026-03-28 07:24 57.61660 38.51603 33241 ft 454 kts 225°
2026-03-28 07:24 57.59270 38.47712 32992 ft 454 kts 224°
2026-03-28 07:25 57.56859 38.43889 32740 ft 455 kts 224°
2026-03-28 07:25 57.54457 38.40101 32492 ft 455 kts 224°
2026-03-28 07:25 57.52041 38.36301 32241 ft 456 kts 224°
2026-03-28 07:25 57.49599 38.32458 31994 ft 456 kts 223°
2026-03-28 07:26 57.47193 38.28675 31746 ft 457 kts 223°
2026-03-28 07:26 57.44759 38.24844 31501 ft 458 kts 223°
2026-03-28 07:26 57.42351 38.21055 31254 ft 458 kts 223°
2026-03-28 07:26 57.39913 38.17215 31009 ft 458 kts 223°
2026-03-28 07:27 57.37478 38.13378 30756 ft 458 kts 223°
2026-03-28 07:27 57.35048 38.09547 30511 ft 459 kts 223°
2026-03-28 07:27 57.32626 38.05729 30265 ft 459 kts 223°
2026-03-28 07:27 57.30213 38.01918 30014 ft 459 kts 223°
2026-03-28 07:28 57.27796 37.98101 29774 ft 459 kts 223°
2026-03-28 07:28 57.25368 37.94266 29515 ft 460 kts 223°
2026-03-28 07:28 57.22942 37.90431 29150 ft 461 kts 224°
2026-03-28 07:28 57.20515 37.86594 28782 ft 460 kts 223°
2026-03-28 07:29 57.18072 37.82732 28409 ft 461 kts 223°
2026-03-28 07:29 57.15637 37.78880 28039 ft 462 kts 223°
2026-03-28 07:29 57.13188 37.75000 27665 ft 462 kts 223°
2026-03-28 07:29 57.10559 37.71583 27270 ft 468 kts 211°
2026-03-28 07:30 57.07641 37.69027 26910 ft 471 kts 207°
2026-03-28 07:30 57.04581 37.66625 26533 ft 474 kts 205°
2026-03-28 07:30 57.01534 37.64326 26163 ft 477 kts 205°
2026-03-28 07:30 56.98441 37.62022 25793 ft 480 kts 205°
2026-03-28 07:31 56.95351 37.59732 25425 ft 482 kts 205°
2026-03-28 07:31 56.92253 37.57442 25057 ft 482 kts 205°
2026-03-28 07:31 56.89120 37.55259 24686 ft 483 kts 202°
2026-03-28 07:31 56.85928 37.53120 24303 ft 484 kts 202°
2026-03-28 07:32 56.82761 37.51009 23923 ft 484 kts 202°
2026-03-28 07:32 56.79577 37.48890 23543 ft 484 kts 202°
2026-03-28 07:32 56.76400 37.46782 23163 ft 484 kts 202°
2026-03-28 07:33 56.70110 37.42622 22471 ft 460 kts 202°
2026-03-28 07:33 56.67197 37.40704 22077 ft 440 kts 202°
2026-03-28 07:33 56.64364 37.38842 21680 ft 423 kts 203°
2026-03-28 07:33 56.61641 37.37054 21287 ft 408 kts 203°
2026-03-28 07:34 56.59010 37.35329 20895 ft 396 kts 203°
2026-03-28 07:34 56.56471 37.33665 20510 ft 385 kts 202°
2026-03-28 07:34 56.54002 37.32047 20127 ft 375 kts 202°
2026-03-28 07:34 56.51560 37.30449 19740 ft 367 kts 202°
2026-03-28 07:35 56.49189 37.28898 19365 ft 364 kts 202°
2026-03-28 07:35 56.46807 37.27341 18991 ft 363 kts 202°
2026-03-28 07:35 56.44428 37.25788 18616 ft 362 kts 202°
2026-03-28 07:35 56.42095 37.24267 18246 ft 359 kts 202°
2026-03-28 07:36 56.39753 37.22742 17871 ft 357 kts 202°
2026-03-28 07:36 56.37432 37.21233 17576 ft 353 kts 202°
2026-03-28 07:36 56.35125 37.19735 17329 ft 353 kts 202°
2026-03-28 07:36 56.32815 37.18236 17080 ft 352 kts 202°
2026-03-28 07:37 56.30505 37.16740 16830 ft 350 kts 202°
2026-03-28 07:37 56.28222 37.15263 16580 ft 348 kts 202°
2026-03-28 07:37 56.25927 37.13781 16329 ft 346 kts 202°
2026-03-28 07:37 56.23667 37.12323 16080 ft 344 kts 202°
2026-03-28 07:38 56.21426 37.10878 15831 ft 342 kts 202°
2026-03-28 07:38 56.19182 37.09434 15581 ft 341 kts 202°
2026-03-28 07:38 56.16947 37.07997 15331 ft 339 kts 202°
2026-03-28 07:38 56.14751 37.06587 15084 ft 337 kts 202°
2026-03-28 07:39 56.12548 37.05174 14835 ft 335 kts 202°
2026-03-28 07:39 56.10347 37.03764 14585 ft 334 kts 202°
2026-03-28 07:39 56.08166 37.02368 14335 ft 332 kts 202°
2026-03-28 07:39 56.06002 37.00985 14087 ft 330 kts 202°
2026-03-28 07:40 56.03834 36.99601 13836 ft 329 kts 202°
2026-03-28 07:40 56.01696 36.98237 13588 ft 327 kts 202°
2026-03-28 07:40 55.99571 36.96883 13340 ft 325 kts 202°
2026-03-28 07:40 55.97454 36.95536 13091 ft 324 kts 202°
2026-03-28 07:41 55.95325 36.94182 12840 ft 322 kts 202°
2026-03-28 07:41 55.93140 36.93350 12579 ft 325 kts 185°
2026-03-28 07:41 55.90878 36.93464 12342 ft 325 kts 179°
2026-03-28 07:41 55.88628 36.93735 12093 ft 324 kts 178°
2026-03-28 07:42 55.86395 36.94046 11843 ft 323 kts 178°
2026-03-28 07:42 55.84149 36.94363 11590 ft 323 kts 178°
2026-03-28 07:42 55.81922 36.94674 11340 ft 322 kts 178°
2026-03-28 07:42 55.79691 36.94983 11088 ft 322 kts 178°
2026-03-28 07:43 55.77448 36.95292 10835 ft 321 kts 178°
2026-03-28 07:43 55.75223 36.95598 10583 ft 320 kts 178°
2026-03-28 07:43 55.73022 36.95915 10330 ft 320 kts 175°
2026-03-28 07:43 55.70821 36.96493 10009 ft 314 kts 172°
2026-03-28 07:44 55.68686 36.97118 9651 ft 310 kts 172°
2026-03-28 07:44 55.66587 36.97733 9307 ft 305 kts 172°
2026-03-28 07:44 55.64527 36.98326 9003 ft 300 kts 172°
2026-03-28 07:44 55.62712 36.98843 8731 ft 296 kts 172°
2026-03-28 07:45 55.61082 36.99303 8494 ft 292 kts 172°
2026-03-28 07:45 55.59068 36.99794 8235 ft 290 kts 178°
2026-03-28 07:45 55.57058 36.99834 7990 ft 289 kts 181°
2026-03-28 07:45 55.55058 36.99813 7742 ft 289 kts 181°
2026-03-28 07:46 55.53037 36.99788 7490 ft 288 kts 181°
2026-03-28 07:46 55.51035 36.99771 7238 ft 287 kts 180°
2026-03-28 07:46 55.49069 36.99760 6991 ft 286 kts 180°
2026-03-28 07:46 55.47093 36.99754 6781 ft 283 kts 180°
2026-03-28 07:47 55.45111 36.99751 6657 ft 283 kts 180°
2026-03-28 07:47 55.43144 36.99749 6534 ft 283 kts 180°
2026-03-28 07:47 55.41180 36.99748 6410 ft 283 kts 180°
2026-03-28 07:47 55.39203 36.99594 6283 ft 282 kts 186°
2026-03-28 07:48 55.37255 36.99206 6160 ft 282 kts 186°
2026-03-28 07:48 55.35316 36.98803 6039 ft 281 kts 186°
2026-03-28 07:48 55.33389 36.99015 5930 ft 281 kts 165°
2026-03-28 07:48 55.31631 37.00411 5686 ft 277 kts 143°
2026-03-28 07:49 55.30304 37.02736 5435 ft 268 kts 122°
2026-03-28 07:49 55.29565 37.05693 5183 ft 259 kts 100°
2026-03-28 07:49 55.29521 37.08816 4931 ft 252 kts 78°
2026-03-28 07:49 55.30146 37.11617 4682 ft 246 kts 55°
2026-03-28 07:50 55.31337 37.13724 4431 ft 242 kts 33°
2026-03-28 07:50 55.32873 37.14785 4184 ft 240 kts 10°
2026-03-28 07:50 55.34539 37.14938 3942 ft 238 kts
2026-03-28 07:50 55.36192 37.14893 3691 ft 237 kts 360°
2026-03-28 07:51 55.37839 37.14811 3438 ft 236 kts 360°
2026-03-28 07:51 55.39463 37.14722 3189 ft 235 kts 360°
2026-03-28 07:51 55.41103 37.14632 3007 ft 230 kts 360°
2026-03-28 07:51 55.42657 37.14541 2999 ft 220 kts 358°
2026-03-28 07:52 55.44117 37.13797 3002 ft 217 kts 333°
2026-03-28 07:52 55.45325 37.12297 3002 ft 208 kts 323°
2026-03-28 07:52 55.46414 37.10693 3004 ft 205 kts 322°
2026-03-28 07:52 55.47513 37.09026 3013 ft 207 kts 321°
2026-03-28 07:53 55.48602 37.07370 2987 ft 209 kts 322°
2026-03-28 07:53 55.49822 37.06049 2796 ft 203 kts 341°
2026-03-28 07:53 55.51120 37.05230 2584 ft 195 kts 344°
2026-03-28 07:53 55.52378 37.04560 2481 ft 181 kts 354°
2026-03-28 07:54 55.53547 37.04736 2482 ft 160 kts 19°
2026-03-28 07:54 55.54453 37.05671 2537 ft 150 kts 49°
2026-03-28 07:54 55.54965 37.07315 2547 ft 154 kts 66°
2026-03-28 07:54 55.55365 37.09103 2448 ft 154 kts 68°
2026-03-28 07:55 55.55737 37.10821 2236 ft 145 kts 68°
2026-03-28 07:55 55.56083 37.12407 2021 ft 131 kts 68°
2026-03-28 07:55 55.56403 37.13856 1853 ft 126 kts 68°
2026-03-28 07:55 55.56729 37.15323 1710 ft 128 kts 68°
2026-03-28 07:56 55.57058 37.16794 1559 ft 129 kts 68°
2026-03-28 07:56 55.57388 37.18259 1377 ft 127 kts 69°
2026-03-28 07:56 55.57698 37.19704 1219 ft 126 kts 69°
2026-03-28 07:56 55.58020 37.21154 1049 ft 128 kts 68°
2026-03-28 07:57 55.58353 37.22593 871 ft 123 kts 69°
2026-03-28 07:57 55.58673 37.24002 714 ft 124 kts 69°
2026-03-28 07:57 55.58957 37.25253 694 ft 83 kts 68°
2026-03-28 07:57 55.59090 37.25854 694 ft 38 kts 68°
2026-03-28 07:58 55.59193 37.26320 694 ft 41 kts 67°
2026-03-28 07:58 55.59333 37.26656 694 ft 20 kts 45°
2026-03-28 07:58 55.59410 37.26785 694 ft 12 kts 42°
2026-03-28 07:58 55.59465 37.26875 694 ft 8 kts 42°
2026-03-28 07:59 55.59522 37.26899 694 ft 8 kts 332°
2026-03-28 07:59 55.59584 37.26913 694 ft 10 kts 40°
2026-03-28 07:59 55.59643 37.27023 694 ft 13 kts 45°
2026-03-28 07:59 55.59717 37.27164 694 ft 17 kts 47°
2026-03-28 08:00 55.59813 37.27334 694 ft 21 kts 46°
2026-03-28 08:00 55.59927 37.27541 694 ft 24 kts 51°
2026-03-28 08:00 55.60009 37.27728 694 ft 15 kts 39°
2026-03-28 08:00 55.60075 37.27814 694 ft 11 kts 42°
2026-03-28 08:01 55.60103 37.27935 694 ft 11 kts 104°
2026-03-28 08:01 55.60078 37.28065 694 ft 10 kts 101°
2026-03-28 08:01 55.60075 37.28197 694 ft 11 kts 86°
2026-03-28 08:01 55.60084 37.28332 694 ft 11 kts 83°
2026-03-28 08:02 55.60111 37.28461 694 ft 11 kts 50°
2026-03-28 08:02 55.60170 37.28569 694 ft 12 kts 45°
2026-03-28 08:02 55.60209 37.28663 694 ft 4 kts 71°
2026-03-28 08:02 55.60214 37.28699 694 ft 2 kts 76°
2026-03-28 08:03 55.60222 37.28740 694 ft 3 kts 62°
2026-03-28 08:03 55.60227 37.28755 694 ft 0 kts 58°
2026-03-28 08:03 55.60236 37.28781 694 ft 2 kts 58°
2026-03-28 08:03 55.60240 37.28793 694 ft 1 kts 58°
2026-03-28 08:04 55.60244 37.28804 694 ft 0 kts 58°
2026-03-28 08:04 55.60245 37.28808 694 ft 0 kts 58°